Regional Weather Roundup
Issued by NWS Grand Forks, ND

Home | Current Version | Previous Version | Graphics & Text | Print | Product List | Glossary On
Versions: 1 2 3 4 5 6 7 8 9 10 11 12 13 14 15 16 17 18 19 20 21 22 23 24 25 26 27 28 29 30 31 32 33 34 35 36 37 38 39 40 41 42 43 44 45 46 47 48 49 50
000
ASUS43 KFGF 251010
RWRFGF
PRAIRIE TO PINES  WEATHER ROUNDUP
NATIONAL WEATHER SERVICE EASTERN NORTH DAKOTA/GRAND FORKS ND
500 AM CDT TUE APR 25 2017

 **SATELLITE DATA USED TO AUGMENT SKY COVER AT AUTOMATED STATIONS**
 *****  WEATHER ACROSS EASTERN NORTH DAKOTA  *****

CITY           SKY/WX    TMP DP  RH WIND       PRES   REMARKS
GRAND FORKS    CLOUDY    33  30  88 N20       29.73S WCI  21
GRAND FRKS AFB CLOUDY    30  28  93 N20G29    29.74R WCI  18
DEVILS LAKE    CLOUDY    29  26  89 N18G26    29.78S WCI  16
FARGO          CLOUDY    33  32  96 N22       29.67R WCI  21
WAHPETON ARPT  CLOUDY    32  32 100 N23G29    29.64R WCI  19
$$

 ***** WEATHER ACROSS CENTRAL AND WESTERN NORTH DAKOTA  *****

CITY           SKY/WX    TMP DP  RH WIND       PRES   REMARKS
BISMARCK       CLOUDY    32  28  85 NE14      29.79R WCI  22
MINOT          CLOUDY    30  25  81 N15       29.83R WCI  19
JAMESTOWN      CLOUDY    30  29  96 N20       29.72R WCI  17
MINOT AFB      CLOUDY    29  24  81 N16       29.84R WCI  17
GARRISON         N/A     29  24  82 NE12      29.81R WCI  19
WILLISTON      CLOUDY    31  22  69 NE12      29.86S WCI  22
DICKINSON      CLOUDY    27  26  96 NE13      29.75R FOG     WCI  16
HETTINGER      CLOUDY    29  26  89 NE14      29.73F WCI  18
$$

 *****  OTHER AIRPORT OBSERVATIONS IN OUR AREA  *****

CITY           SKY/WX    TMP DP  RH WIND       PRES   REMARKS
WALHALLA       NOT AVBL
GRAFTON AIRPOR CLOUDY    30  30 100 N18G25    29.79R WCI  18
VALLEY CITY AR CLOUDY    30  30 100 N18       29.72R WCI  18
CANDO          NOT AVBL
CAVALIER APRT  CLOUDY    30  27  86 N18G24    29.79R WCI  18
GWINNER        CLOUDY    32  32 100 MISG      29.68R
SHEYENNE NWR     N/A     32  30  93 N9        29.95S WCI  24
ROLLA          CLOUDY    27  25  93 NE24      29.82S WCI  12
 ***** THE ABOVE OBSERVATIONS ARE NON NWS ARE NOT QUALITY
       CONTROLLED AND MAY MIS-REPORT RAIN FOR SNOW...
$$

  *****  WEATHER ACROSS NORTHERN MINNESOTA  *****

CITY           SKY/WX    TMP DP  RH WIND       PRES   REMARKS
FLAG ISLAND    CLOUDY    30  27  86 NE20      29.72S WCI  18
WARROAD        CLOUDY    30  27  86 N13       29.72R WCI  20
ROSEAU         CLOUDY    30  27  86 N14       29.73R WCI  20
HALLOCK        CLOUDY    30  28  93 N16       29.77R WCI  19
THF RVR FALLS  CLOUDY    31  30  96 N20       29.70R FOG     WCI  19
BAUDETTE       CLOUDY    32  30  92 N10       29.67R WCI  24
WASKISH        CLOUDY    36  34  93 N8        29.64R
CROOKSTON      CLOUDY    32  30  93 N16G24    29.71R WCI  21
STEPHEN NDAWN    N/A     30  28  93 VRB15       N/A  WCI  19
GREENBUSH NDAW   N/A     28  28 100 N14         N/A  WCI  17
$$
  *****  WEATHER ACROSS CENTRAL AND WEST MINNESOTA  *****

CITY           SKY/WX    TMP DP  RH WIND       PRES   REMARKS
FOSSTON        CLOUDY    32  32 100 N16       29.65R FOG     WCI  21
BEMIDJI        CLOUDY    37  37  98 N9        29.60R
PARK RAPIDS    CLOUDY    42  37  82 N10       29.56R
ELBOW LAKE     FOG       36  36 100 NW14G24   29.59R VSB 1
WADENA         CLOUDY    43  39  87 N9        29.55R
DETROIT LAKES  CLOUDY    36  36 100 N20       29.61R FOG
MOORHEAD       CLOUDY    32  30  93 N24G31    29.67R WCI  19
FERGUS FALLS   CLOUDY    34  34 100 N16G29    29.60R FOG     WCI  23
MORRIS MN      CLOUDY    36  36 100 NW25      29.58R FOG
STAPLES        CLOUDY    41  39  93 N10       29.54R
$$
  *****  WEATHER ELSEWHERE ACROSS MINNESOTA  *****

CITY           SKY/WX    TMP DP  RH WIND       PRES   REMARKS
DULUTH         CLOUDY    40  37  89 E6        29.57F
INTRNTL FALLS  CLOUDY    35  33  92 NE8       29.64S FOG
ELY            DRIZZLE   37  37 100 CALM      29.59S
CLOQUET        CLOUDY    37  36  93 E7        29.57R
WHEATON        CLOUDY    34  34 100 NW17      29.65R FOG     WCI  23
BRAINERD       CLOUDY    41  39  93 NE8       29.53R
HIBBING        LGT RAIN  37  37 100 CALM      29.57S
ALEXANDRIA     FOG       43  43 100 NW13      29.55R VSB 1/2
SAINT CLOUD    CLOUDY    53  45  74 E8        29.47S
MINNEAPOLIS    CLOUDY    60  36  40 SE7       29.49S
$$

  *****  WEATHER ACROSS SOUTH DAKOTA  *****

CITY           SKY/WX    TMP DP  RH WIND       PRES   REMARKS
SIOUX FALLS    CLOUDY    42  38  85 N15       29.57S
BROOKINGS      CLOUDY    38  36  92 N13       29.57S
WATERTOWN      CLOUDY    35  35 100 N16       29.58F FOG
HURON          CLOUDY    36  35  96 N16       29.65R
SISSETON         N/A     34  34 100 N21       29.63R WCI  22
ABERDEEN       CLOUDY    34  30  85 N17       29.68S WCI  23
MITCHELL       CLOUDY    38  36  92 N16       29.63S
PIERRE         CLOUDY    35  31  85 N17       29.65F WCI  25
MOBRIDGE       CLOUDY    34  29  82 N16G24    29.68S WCI  24
RAPID CITY     LGT SNOW  33  32  96 NE9       29.63F FOG
$$

  *****  SOME WEATHER IN NEARBY STATES *****

CITY           SKY/WX    TMP DP  RH WIND       PRES   REMARKS
GLASGOW MT     CLOUDY    30  24  78 E13       29.85S WCI  20
GREAT FALLS MT CLOUDY    40  38  93 NW7       29.72S
CHEYENNE WY    FAIR      40  30  67 W15G23    29.56F
SCOTTSBLUFF NE FAIR      45  42  89 CALM      29.51F
OMAHA NE       MOCLDY    52  42  69 N8        29.51R
DES MOINES IA  FAIR      57  39  51 SE8       29.52F
DAVENPORT IA     N/A     55  34  45 S12       29.62F
CHICAGO IL     FAIR      55  46  71 SE10      29.70F
EAU CLAIRE WI  CLOUDY    59  31  34 SE12      29.54F
LA CROSSE WI   FAIR      60  32  34 SE10      29.57F
$$

  *****  SOME NATIONAL WEATHER *****

CITY           SKY/WX    TMP DP  RH WIND       PRES   REMARKS
LA GUARDIA NY  LGT RAIN  50  47  89 NE20      30.07F
RALEIGH NC     LGT RAIN  60  58  92 NE9       29.61R
ATLANTA GA     MOCLDY    58  56  93 W8        29.74S
NEW ORLEANS LA FAIR      59  57  93 CALM      29.79S
OKLAHOMA CITY  MOCLDY    61  51  70 S17       29.42F
ALBUQUERQUE NM CLOUDY    62  21  20 S13       29.69F
SALT LAKE CITY LGT RAIN  42  40  92 SW7       29.74S
LOS ANGELES CA FAIR      60  55  83 W12       29.85F
BOISE ID       CLOUDY    44  37  76 NW16      29.83R
SEATTLE WA     CLOUDY    48  44  86 S13       29.97R
$$

*** WEATHER ACROSS MANITOBA...SASKATCHEWAN AND ONTARIO ***
                ***ONTARIO***

CITY           SKY/WX    TMP DP  RH WIND       PRES   REMARKS
GERALDTON      FRZ RAIN  30  21  69 E9G17     29.83F WCI  22
THUNDER BAY    LGT RAIN  37  34  87 E14       29.69F
SIOUX LOOKOUT  LGT SNOW  25  23  93 NE9G17    29.75S WCI  15
TORONTO        MOCLDY    46  32  57 E8        30.00S
BIG TROUT LK   CLOUDY    14   5  67 E8        30.17S WCI   3
PICKLE LAKE    NOT AVBL
DRYDEN         LGT SNOW  27  27 100 NE17G24   29.71R WCI  14
KENORA         LGT SNOW  27  25  93 NE13G21   29.75R DRFTSNOWWCI  16
$$
                *** MANITOBA***

CITY           SKY/WX    TMP DP  RH WIND       PRES   REMARKS
BRANDON        PTCLDY    25  21  86 N9        29.91R WCI  15
DAUPHIN        CLEAR     23  18  80 N8        30.01R WCI  14
ISLAND LAKE    NOT AVBL
PILOT MOUND      N/A     28  23  80 N14G21      N/A  WCI  17
THE PAS        PTCLDY    19   7  58 E5        30.16R WCI  13
THOMPSON       CLEAR      1  -6  71 NE6       30.29R WCI -10
WINNIPEG       CLOUDY    30  25  80 NE18G25   29.86R WCI  18
LYNN LAKE      CLEAR      3  -2  78 SE3       30.22S
CHURCHILL      CLOUDY     1  -2  85 VRB2      30.45R
GILLAM         CLEAR     -6  -9  84 E6        30.37S WCI -18
$$
                ***SASKATCHEWAN***

CITY           SKY/WX    TMP DP  RH WIND       PRES   REMARKS
ESTEVAN        CLOUDY    28  21  74 NE10      29.91R WCI  19
KINDERSLEY     CLOUDY    28  25  86 E10       29.91R WCI  19
LLOYDMINSTER   FLURRIES  28  28 100 SE13      29.94R WCI  18
PRINCE ALBERT  MOCLDY    23  16  74 E8        30.07R WCI  14
REGINA         CLOUDY    27  19  74 NE10      29.95R WCI  17
YORKTON        CLEAR     19  16  86 N9        30.00R WCI   9
N. BATTLEFORD  CLOUDY    28  28 100 E8        30.01R WCI  20
LA RONGE       PTCLDY    25  10  54 E7        30.13R WCI  17
SASKATOON      CLOUDY    27  21  80 E8        30.02R WCI  18
SWIFT CURRENT  CLOUDY    27  25  93 SE9       29.87S WCI  17
$$
NOTE: THESE ARE AUTOMATED STATIONS WITH LIMITED QUALITY CONTROL
      "FAIR" INDICATES FEW OR NO CLOUDS BELOW 12,000 FEET WITH NO
      SIGNIFICANT WEATHER AND/OR OBSTRUCTIONS TO VISIBILITY.
      SKY/WX - SKY CONDITION AND SIGNIFICANT WEATHER.
      TMP - AIR TEMPERATURE.    DP   - DEWPOINT TEMPERATURE.
      RH  - RELATIVE HUMIDITY.  PRES - PRESSURE.
      HX  - HEAT INDEX.         WCI  - WIND CHILL INDEX.
$



USA.gov is the U.S. government's official web portal to all federal, state and local government web resources and services.